SKYSAT-C9 (42989 NORAD) Tracking and Keplerian Element Data

This shows tracking and keplerian element data for the satellite.

Feedback or suggestion? Click here.




ElementValue
Catalog42989
NameSKYSAT-C9
Epoch Orbit8085
Epoch Day106.82027021
Epoch Year2019
RAAN221.6162
Inclination97.4229
Eccentricity0.0001331
Argument of Perigee68.2706
Mean Anonmoly49.8721
Mean Motion15.21641178
Decay Rate6.92E-06
L11 42989U 17068C 19106.82027021 .00000692 00000-0 33686-4 0 9990
L22 42989 97.4229 221.6162 0001331 68.2706 49.8721 15.21641178 80852

Live tracking and technical data element details for SKYSAT-C9 (NORAD 42989). SKYSAT-C9 can be tracked NOW for your location showing map with azimuth and elevation plus other details from your city location.

Track the satellite on the map from your city or location and see movement details for azimuth, elevation, latitude, longitude, range, height, and movement on the map or in text.







IsCatalogInMostPopularTable: catalog: 42989, numindb: 191
Update: records affected: 1



GetName: 42989 SKYSAT-C9

Hit Count: updated at: Sat, 20 Apr 2019 00:12:04 GMT